Location: Unspecified
(0.0000°N, 0.0000°E)
Time: 02:41:23
(UTC+01:00)

BREEZE-M DEB (TANK) - Visible Passes

Search period start: 01 November 2014 00:00
Search period end: 11 November 2014 00:00
Orbit: 321 x 16424 km, 49.4° (Epoch: 31 October)

Date Brightness Start Highest point End Pass type
(mag) Time Alt. Az. Time Alt. Az. Time Alt. Az.
01 Nov 8.1 00:15:21 10° NNW 00:25:50 17° NNW 00:25:50 17° NNW visible
01 Nov 8.2 16:30:08 10° WSW 17:27:37 36° WNW 20:06:25 10° NNE visible
02 Nov 8.2 01:10:39 10° NW 01:11:39 11° NNW 01:11:39 11° NNW visible
02 Nov 8.0 17:29:52 10° W 18:36:00 24° NW 21:00:17 12° NNE visible
03 Nov 7.9 18:57:19 10° WNW 21:36:43 20° N 21:46:05 19° NNE visible
04 Nov 7.8 21:40:04 10° NNW 22:31:55 24° N 22:31:55 24° N visible
05 Nov 7.8 22:51:00 10° NNW 23:17:45 24° N 23:17:45 24° N visible
06 Nov 7.9 23:50:11 10° NNW 00:03:36 20° NNW 00:03:36 20° NNW visible
07 Nov 8.1 16:08:19 10° WSW 17:06:03 33° NW 19:45:22 10° NNE visible
08 Nov 8.1 00:46:12 10° NW 00:49:27 13° NW 00:49:27 13° NW visible
08 Nov 7.9 17:10:19 10° W 18:21:47 22° NW 20:38:07 13° NE visible
09 Nov 7.7 18:53:26 10° WNW 21:16:48 22° NNE 21:23:58 21° NNE visible
10 Nov 7.6 21:15:01 10° NNW 22:09:50 27° N 22:09:50 27° N visible
